TimeEEST,TemperatureF,Dew PointF,Humidity,Sea Level PressureIn,VisibilityMPH,Wind Direction,Wind SpeedMPH,Gust SpeedMPH,PrecipitationIn,Events,Conditions,WindDirDegrees,DateUTC
12:50 AM,69.8,55.4,60,29.83,-9999.0,East,4.6,-,N/A,,Clear,100,2012-09-12 21:50:00
1:20 AM,71.6,55.4,57,29.83,-9999.0,East,5.8,-,N/A,,Clear,100,2012-09-12 22:20:00
1:50 AM,68.0,55.4,64,29.83,-9999.0,ENE,3.5,-,N/A,,Clear,70,2012-09-12 22:50:00
2:20 AM,68.0,55.4,64,29.83,-9999.0,NE,4.6,-,N/A,,Clear,40,2012-09-12 23:20:00
3:00 AM,69,54,49,29.83,6,NNE,3.5,,,,,30,2012-09-13 00:00:00
3:50 AM,64.4,55.4,73,29.83,-9999.0,NNW,4.6,-,N/A,,Clear,340,2012-09-13 00:50:00
4:20 AM,64.4,55.4,73,29.80,-9999.0,North,6.9,-,N/A,,Clear,350,2012-09-13 01:20:00
4:50 AM,64.4,55.4,73,29.80,-9999.0,North,5.8,-,N/A,,Clear,350,2012-09-13 01:50:00
5:20 AM,64.4,55.4,73,29.80,-9999.0,North,4.6,-,N/A,,Clear,350,2012-09-13 02:20:00
5:50 AM,64.4,55.4,73,29.80,6.2,North,5.8,-,N/A,,Partly Cloudy,350,2012-09-13 02:50:00
6:20 AM,64.4,55.4,73,29.80,-9999.0,North,5.8,-,N/A,,Clear,350,2012-09-13 03:20:00
6:50 AM,64.4,55.4,73,29.83,-9999.0,North,4.6,-,N/A,,Clear,350,2012-09-13 03:50:00
7:20 AM,66.2,55.4,68,29.83,6.2,South,1.2,-,N/A,,Partly Cloudy,170,2012-09-13 04:20:00
7:50 AM,68.0,55.4,64,29.83,6.2,Variable,2.3,-,N/A,,Partly Cloudy,0,2012-09-13 04:50:00
8:20 AM,71.6,57.2,60,29.83,6.2,SE,5.8,-,N/A,,Partly Cloudy,140,2012-09-13 05:20:00
8:50 AM,71.6,57.2,60,29.83,6.2,SSE,5.8,-,N/A,,Partly Cloudy,150,2012-09-13 05:50:00
9:00 AM,72,58,51,29.84,6,SSE,5.8,,,,Scattered Clouds,150,2012-09-13 06:00:00
9:20 AM,73.4,59.0,61,29.83,6.2,South,5.8,-,N/A,,Partly Cloudy,170,2012-09-13 06:20:00
9:50 AM,73.4,57.2,57,29.83,6.2,SSE,6.9,-,N/A,,Partly Cloudy,160,2012-09-13 06:50:00
10:20 AM,73.4,59.0,61,29.83,6.2,South,6.9,-,N/A,,Partly Cloudy,170,2012-09-13 07:20:00
10:50 AM,73.4,59.0,61,29.83,6.2,South,6.9,-,N/A,,Partly Cloudy,170,2012-09-13 07:50:00
11:20 AM,73.4,59.0,61,29.83,6.2,South,8.1,-,N/A,,Partly Cloudy,180,2012-09-13 08:20:00
11:50 AM,73.4,60.8,65,29.83,6.2,South,8.1,-,N/A,,Partly Cloudy,190,2012-09-13 08:50:00
12:20 PM,73.4,59.0,61,29.83,6.2,South,9.2,-,N/A,,Partly Cloudy,180,2012-09-13 09:20:00
12:50 PM,73.4,60.8,65,29.83,6.2,SSW,8.1,-,N/A,,Partly Cloudy,200,2012-09-13 09:50:00
1:20 PM,75.2,60.8,61,29.83,6.2,SSW,8.1,-,N/A,,Partly Cloudy,210,2012-09-13 10:20:00
1:50 PM,75.2,60.8,61,29.83,6.2,SW,8.1,-,N/A,,Partly Cloudy,220,2012-09-13 10:50:00
2:20 PM,75.2,60.8,61,29.83,6.2,SW,8.1,-,N/A,,Partly Cloudy,220,2012-09-13 11:20:00
2:50 PM,75.2,59.0,57,29.83,6.2,SW,6.9,-,N/A,,Partly Cloudy,220,2012-09-13 11:50:00
3:00 PM,74,59,51,29.83,6,SW,6.9,,,,Scattered Clouds,220,2012-09-13 12:00:00
3:20 PM,75.2,55.4,50,29.80,6.2,SW,6.9,-,N/A,,Partly Cloudy,220,2012-09-13 12:20:00
3:50 PM,75.2,55.4,50,29.80,6.2,Variable,4.6,-,N/A,,Partly Cloudy,0,2012-09-13 12:50:00
4:20 PM,75.2,55.4,50,29.80,6.2,SW,5.8,-,N/A,,Partly Cloudy,220,2012-09-13 13:20:00
4:50 PM,75.2,50.0,41,29.80,6.2,SW,4.6,-,N/A,,Partly Cloudy,230,2012-09-13 13:50:00
5:20 PM,75.2,55.4,50,29.80,6.2,SW,5.8,-,N/A,,Partly Cloudy,230,2012-09-13 14:20:00
5:50 PM,75.2,53.6,47,29.80,6.2,SSW,3.5,-,N/A,,Partly Cloudy,210,2012-09-13 14:50:00
6:20 PM,75.2,57.2,53,29.80,6.2,SW,4.6,-,N/A,,Partly Cloudy,220,2012-09-13 15:20:00
6:50 PM,73.4,57.2,57,29.80,6.2,SW,4.6,-,N/A,,Partly Cloudy,230,2012-09-13 15:50:00
7:20 PM,71.6,59.0,64,29.80,-9999.0,South,2.3,-,N/A,,Clear,190,2012-09-13 16:20:00
7:50 PM,71.6,60.8,69,29.83,-9999.0,South,3.5,-,N/A,,Clear,170,2012-09-13 16:50:00
8:20 PM,75.2,60.8,61,29.83,-9999.0,SE,5.8,-,N/A,,Clear,140,2012-09-13 17:20:00
8:50 PM,73.4,60.8,65,29.83,-9999.0,SE,8.1,-,N/A,,Clear,130,2012-09-13 17:50:00
9:00 PM,74,61,55,29.85,6,SE,8.1,,,,,130,2012-09-13 18:00:00
9:20 PM,71.6,60.8,69,29.86,-9999.0,Variable,3.5,-,N/A,,Clear,0,2012-09-13 18:20:00
9:50 PM,71.6,59.0,64,29.86,-9999.0,Variable,2.3,-,N/A,,Clear,0,2012-09-13 18:50:00
10:20 PM,71.6,59.0,64,29.86,-9999.0,East,3.5,-,N/A,,Clear,80,2012-09-13 19:20:00
10:50 PM,71.6,60.8,69,29.86,-9999.0,East,3.5,-,N/A,,Clear,90,2012-09-13 19:50:00
11:20 PM,71.6,59.0,64,29.86,-9999.0,East,3.5,-,N/A,,Clear,90,2012-09-13 20:20:00
11:50 PM,69.8,60.8,73,29.86,-9999.0,East,3.5,-,N/A,,Clear,90,2012-09-13 20:50:00